| time (UTC) | temp C | wind direction | speed KPH | gust KPH | rain 1hr cm | rain 24hr cm | rain mn cm | humidity % | barometer mb |
| 20260905145206 | 16 | 273 | 24.1 | 29.0 | 0.00 | 0.56 | 0.15 | 75 | 1007.1 |
| 20260905144708 | 16 | 290 | 19.3 | 40.2 | 0.00 | 0.56 | 0.15 | 74 | 1007.1 |
| 20260905144205 | 17 | 275 | 25.7 | 40.2 | 0.00 | 0.56 | 0.15 | 72 | 1007.1 |
| 20260905143706 | 17 | 260 | 16.1 | 32.2 | 0.00 | 0.56 | 0.15 | 70 | 1007.1 |
| 20260905143206 | 17 | 259 | 22.5 | 35.4 | 0.00 | 0.56 | 0.15 | 68 | 1007.2 |
| 20260905142205 | 18 | 255 | 16.1 | 32.2 | 0.00 | 0.56 | 0.15 | 70 | 1007.1 |
| 20260905141706 | 18 | 269 | 19.3 | 32.2 | 0.00 | 0.56 | 0.15 | 70 | 1007.1 |
| 20260905141206 | 18 | 280 | 16.1 | 37.0 | 0.00 | 0.56 | 0.15 | 70 | 1007.0 |
| 20260905140706 | 18 | 258 | 16.1 | 27.4 | 0.00 | 0.56 | 0.15 | 70 | 1007.0 |
| 20260905140207 | 17 | 249 | 20.9 | 41.8 | 0.00 | 0.56 | 0.15 | 69 | 1007.0 |
| 20260905135205 | 17 | 240 | 22.5 | 29.0 | 0.00 | 0.56 | 0.15 | 69 | 1007.0 |
| 20260905134706 | 17 | 263 | 25.7 | 37.0 | 0.00 | 0.56 | 0.15 | 69 | 1007.0 |
| 20260905133706 | 17 | 248 | 29.0 | 37.0 | 0.00 | 0.56 | 0.15 | 71 | 1007.0 |
| 20260905133206 | 17 | 261 | 20.9 | 37.0 | 0.00 | 0.56 | 0.15 | 70 | 1007.0 |
| 20260905132705 | 17 | 267 | 25.7 | 48.3 | 0.00 | 0.56 | 0.15 | 69 | 1006.8 |
| 20260905131706 | 18 | 265 | 20.9 | 46.7 | 0.00 | 0.58 | 0.15 | 68 | 1006.6 |
| 20260905130705 | 18 | 278 | 19.3 | 35.4 | 0.00 | 0.76 | 0.15 | 69 | 1006.7 |
| 20260905130205 | 18 | 284 | 22.5 | 45.1 | 0.00 | 0.76 | 0.15 | 68 | 1006.7 |
| 20260905125705 | 18 | 255 | 20.9 | 38.6 | 0.00 | 0.79 | 0.15 | 70 | 1006.6 |
| 20260905123705 | 18 | 283 | 20.9 | 40.2 | 0.00 | 0.81 | 0.15 | 68 | 1006.2 |
| 20260905122705 | 17 | 301 | 22.5 | 32.2 | 0.00 | 0.84 | 0.15 | 69 | 1006.1 |
| 20260905122207 | 17 | 282 | 27.4 | 51.5 | 0.00 | 0.84 | 0.15 | 68 | 1006.1 |
| 20260905115709 | 17 | 269 | 29.0 | 45.1 | 0.00 | 0.89 | 0.15 | 66 | 1005.7 |
| 20260905114709 | 17 | 271 | 27.4 | 38.6 | 0.00 | 0.91 | 0.15 | 67 | 1005.6 |
| 20260905113207 | 17 | 268 | 22.5 | 35.4 | 0.00 | 0.94 | 0.15 | 68 | 1005.7 |
| 20260905112707 | 17 | 257 | 29.0 | 41.8 | 0.00 | 0.97 | 0.15 | 68 | 1005.7 |
| 20260905112208 | 17 | 285 | 27.4 | 48.3 | 0.00 | 0.99 | 0.15 | 68 | 1005.6 |
| 20260905111208 | 17 | 282 | 24.1 | 38.6 | 0.00 | 0.99 | 0.15 | 71 | 1005.4 |
| 20260905105207 | 17 | 257 | 24.1 | 35.4 | 0.00 | 1.04 | 0.15 | 71 | 1005.4 |
| 20260905104708 | 17 | 265 | 30.6 | 40.2 | 0.00 | 1.04 | 0.15 | 69 | 1005.5 |
| 20260905104208 | 17 | 253 | 25.7 | 40.2 | 0.00 | 1.09 | 0.15 | 70 | 1005.4 |
| 20260905101707 | 17 | 256 | 25.7 | 35.4 | 0.00 | 1.14 | 0.15 | 72 | 1005.2 |
| 20260905101207 | 17 | 247 | 27.4 | 45.1 | 0.00 | 1.14 | 0.15 | 71 | 1005.1 |
| 20260905100209 | 17 | 266 | 30.6 | 46.7 | 0.00 | 1.14 | 0.15 | 71 | 1005.0 |
| 20260905094709 | 17 | 251 | 24.1 | 35.4 | 0.00 | 1.17 | 0.15 | 74 | 1004.9 |
| 20260905094209 | 16 | 269 | 22.5 | 37.0 | 0.00 | 1.17 | 0.15 | 75 | 1005.0 |
| 20260905093708 | 16 | 262 | 29.0 | 41.8 | 0.00 | 1.17 | 0.15 | 74 | 1005.0 |
| 20260905091707 | 16 | 259 | 22.5 | 38.6 | 0.00 | 1.19 | 0.15 | 78 | 1004.9 |
| 20260905091210 | 15 | 243 | 22.5 | 38.6 | 0.00 | 1.19 | 0.15 | 79 | 1004.8 |
| 20260905090207 | 15 | 256 | 27.4 | 38.6 | 0.00 | 1.19 | 0.15 | 79 | 1004.8 |
| 20260905085208 | 15 | 253 | 22.5 | 38.6 | 0.00 | 1.19 | 0.15 | 79 | 1004.8 |
| 20260905084708 | 15 | 269 | 25.7 | 37.0 | 0.00 | 1.19 | 0.15 | 79 | 1004.7 |
| 20260905083707 | 15 | 255 | 19.3 | 35.4 | 0.00 | 1.19 | 0.15 | 80 | 1004.7 |
| 20260905082207 | 15 | 247 | 20.9 | 38.6 | 0.00 | 1.22 | 0.15 | 81 | 1004.6 |
| 20260905081208 | 15 | 264 | 17.7 | 32.2 | 0.00 | 1.24 | 0.15 | 81 | 1004.5 |
| 20260905080707 | 15 | 262 | 17.7 | 27.4 | 0.00 | 1.24 | 0.15 | 80 | 1004.6 |
| 20260905075207 | 15 | 242 | 32.2 | 41.8 | 0.00 | 1.27 | 0.15 | 77 | 1004.2 |
| 20260905074708 | 15 | 259 | 25.7 | 37.0 | 0.00 | 1.30 | 0.15 | 78 | 1004.2 |
| 20260905074209 | 16 | 277 | 19.3 | 41.8 | 0.00 | 1.30 | 0.15 | 78 | 1004.2 |
| 20260905073207 | 16 | 253 | 24.1 | 40.2 | 0.00 | 1.30 | 0.15 | 78 | 1004.2 |
| 20260905071707 | 16 | 255 | 25.7 | 32.2 | 0.00 | 1.30 | 0.15 | 80 | 1004.0 |
| 20260905070207 | 15 | 229 | 20.9 | 29.0 | 0.00 | 1.30 | 0.15 | 82 | 1003.9 |
| 20260905065709 | 15 | 256 | 16.1 | 32.2 | 0.00 | 1.30 | 0.15 | 82 | 1003.9 |
| 20260905065209 | 15 | 230 | 19.3 | 38.6 | 0.00 | 1.30 | 0.15 | 83 | 1003.9 |
| 20260905064708 | 15 | 249 | 19.3 | 32.2 | 0.00 | 1.30 | 0.15 | 83 | 1003.9 |
| 20260905064208 | 15 | 245 | 22.5 | 35.4 | 0.00 | 1.30 | 0.15 | 83 | 1003.9 |
| 20260905061708 | 14 | 255 | 17.7 | 33.8 | 0.00 | 1.30 | 0.15 | 84 | 1003.7 |
| 20260905061207 | 14 | 272 | 17.7 | 27.4 | 0.00 | 1.30 | 0.15 | 84 | 1003.7 |
| 20260905060707 | 14 | 226 | 14.5 | 29.0 | 0.00 | 1.30 | 0.15 | 84 | 1003.5 |
| 20260905060209 | 14 | 252 | 16.1 | 33.8 | 0.00 | 1.30 | 0.15 | 85 | 1003.5 |
| 20260905053208 | 13 | 250 | 11.3 | 22.5 | 0.03 | 1.30 | 0.15 | 86 | 1003.4 |
| 20260905052707 | 13 | 267 | 17.7 | 27.4 | 0.03 | 1.30 | 0.15 | 86 | 1003.4 |
| 20260905044707 | 13 | 251 | 16.1 | 27.4 | 0.00 | 1.27 | 0.13 | 86 | 1002.9 |
| 20260905043207 | 13 | 263 | 16.1 | 32.2 | 0.00 | 1.27 | 0.13 | 87 | 1002.8 |
| 20260905041208 | 13 | 257 | 17.7 | 33.8 | 0.00 | 1.27 | 0.13 | 88 | 1002.7 |
| 20260905033208 | 13 | 241 | 14.5 | 27.4 | 0.00 | 1.27 | 0.13 | 88 | 1002.4 |
| 20260905032708 | 13 | 253 | 14.5 | 27.4 | 0.00 | 1.27 | 0.13 | 88 | 1002.3 |
| 20260905032209 | 13 | 245 | 14.5 | 27.4 | 0.00 | 1.27 | 0.13 | 88 | 1002.3 |
| 20260905031707 | 13 | 259 | 14.5 | 22.5 | 0.00 | 1.27 | 0.13 | 88 | 1002.2 |
| 20260905030707 | 13 | 241 | 19.3 | 35.4 | 0.00 | 1.27 | 0.13 | 87 | 1002.2 |
| 20260905024708 | 12 | 257 | 16.1 | 27.4 | 0.00 | 1.27 | 0.13 | 87 | 1002.1 |
| 20260905024208 | 12 | 265 | 11.3 | 27.4 | 0.00 | 1.27 | 0.13 | 87 | 1002.0 |
| 20260905022709 | 12 | 266 | 16.1 | 25.7 | 0.00 | 1.27 | 0.13 | 87 | 1001.8 |
| 20260905021707 | 12 | 270 | 22.5 | 38.6 | 0.00 | 1.27 | 0.13 | 88 | 1001.7 |
| 20260905020706 | 12 | 263 | 16.1 | 25.7 | 0.00 | 1.27 | 0.13 | 88 | 1001.7 |
| 20260905020208 | 12 | 285 | 22.5 | 33.8 | 0.00 | 1.27 | 0.13 | 88 | 1001.6 |
| 20260905015707 | 12 | 256 | 19.3 | 33.8 | 0.00 | 1.27 | 0.13 | 88 | 1001.6 |
| 20260905013706 | 12 | 272 | 17.7 | 33.8 | 0.00 | 1.27 | 0.13 | 89 | 1001.3 |
| 20260905012208 | 12 | 278 | 20.9 | 38.6 | 0.03 | 1.27 | 0.13 | 90 | 1001.0 |
| 20260905011706 | 13 | 259 | 22.5 | 33.8 | 0.03 | 1.27 | 0.13 | 90 | 1001.0 |
| 20260905011206 | 13 | 256 | 20.9 | 38.6 | 0.03 | 1.27 | 0.13 | 90 | 1001.0 |
| 20260905005208 | 13 | 270 | 19.3 | 27.4 | 0.13 | 1.27 | 0.13 | 90 | 1000.6 |
| 20260905004707 | 13 | 268 | 16.1 | 29.0 | 0.13 | 1.27 | 0.13 | 90 | 1000.6 |
| 20260905003207 | 13 | 273 | 16.1 | 35.4 | 0.10 | 1.24 | 0.10 | 89 | 1000.5 |
| 20260905002707 | 13 | 256 | 19.3 | 27.4 | 0.10 | 1.24 | 0.10 | 89 | 1000.5 |
| 20260905000207 | 13 | 260 | 20.9 | 33.8 | 0.10 | 1.24 | 0.10 | 88 | 1000.3 |
| 20260904235706 | 13 | 254 | 19.3 | 29.0 | 0.03 | 1.17 | 0.03 | 88 | 1000.3 |
| 20260904235208 | 13 | 241 | 19.3 | 29.0 | 0.00 | 1.14 | 0.00 | 88 | 1000.3 |
| 20260904233207 | 13 | 255 | 17.7 | 27.4 | 0.00 | 1.14 | 0.00 | 88 | 1000.3 |
| 20260904232708 | 13 | 249 | 19.3 | 33.8 | 0.00 | 1.14 | 0.00 | 88 | 1000.4 |
| 20260904232209 | 13 | 250 | 16.1 | 32.2 | 0.00 | 1.14 | 0.00 | 87 | 1000.3 |
| 20260904231709 | 13 | 261 | 16.1 | 25.7 | 0.00 | 1.14 | 0.00 | 87 | 1000.1 |
| 20260904231207 | 13 | 235 | 17.7 | 29.0 | 0.00 | 1.14 | 0.00 | 87 | 1000.1 |
| 20260904230708 | 13 | 257 | 22.5 | 33.8 | 0.00 | 1.14 | 0.00 | 87 | 1000.1 |
| 20260904225707 | 13 | 259 | 20.9 | 32.2 | 0.00 | 1.14 | 0.00 | 87 | 1000.1 |
| 20260904225207 | 13 | 256 | 20.9 | 29.0 | 0.00 | 1.14 | 0.00 | 87 | 1000.1 |
| 20260904224708 | 13 | 266 | 14.5 | 25.7 | 0.00 | 1.14 | 0.00 | 87 | 1000.0 |
| 20260904222707 | 13 | 270 | 16.1 | 24.1 | 0.00 | 1.14 | 0.00 | 87 | 999.9 |
| 20260904221707 | 13 | 252 | 17.7 | 33.8 | 0.00 | 1.14 | 0.00 | 87 | 999.9 |
| 20260904220708 | 13 | 269 | 16.1 | 33.8 | 0.00 | 1.14 | 0.00 | 87 | 1000.0 |
| 20260904220206 | 13 | 257 | 22.5 | 41.8 | 0.00 | 1.14 | 0.00 | 88 | 1000.0 |
| 20260904215206 | 13 | 277 | 16.1 | 25.7 | 0.00 | 1.14 | 1.14 | 88 | 999.9 |
| 20260904214707 | 13 | 254 | 17.7 | 35.4 | 0.00 | 1.14 | 1.14 | 87 | 999.8 |
| 20260904212707 | 13 | 247 | 17.7 | 37.0 | 0.00 | 1.14 | 1.14 | 88 | 999.6 |
| 20260904212206 | 13 | 252 | 20.9 | 37.0 | 0.00 | 1.14 | 1.14 | 88 | 999.6 |
| 20260904211708 | 13 | 256 | 17.7 | 32.2 | 0.00 | 1.14 | 1.14 | 88 | 999.6 |
| 20260904210707 | 13 | 267 | 20.9 | 37.0 | 0.00 | 1.14 | 1.14 | 88 | 999.6 |
| 20260904210206 | 13 | 283 | 22.5 | 45.1 | 0.00 | 1.14 | 1.14 | 88 | 999.5 |
| 20260904205708 | 13 | 250 | 19.3 | 22.5 | 0.00 | 1.14 | 1.14 | 88 | 999.5 |
| 20260904205208 | 13 | 267 | 22.5 | 40.2 | 0.00 | 1.14 | 1.14 | 88 | 999.3 |
| 20260904204206 | 13 | 267 | 20.9 | 33.8 | 0.00 | 1.14 | 1.14 | 88 | 999.3 |
| 20260904202706 | 13 | 273 | 22.5 | 35.4 | 0.00 | 1.14 | 1.14 | 89 | 999.2 |
| 20260904202207 | 13 | 258 | 20.9 | 38.6 | 0.00 | 1.14 | 1.14 | 89 | 999.2 |
| 20260904201207 | 13 | 257 | 25.7 | 41.8 | 0.00 | 1.14 | 1.14 | 89 | 999.0 |
| 20260904195707 | 13 | 259 | 27.4 | 48.3 | 0.00 | 1.14 | 1.14 | 91 | 998.9 |
| 20260904195208 | 13 | 259 | 24.1 | 45.1 | 0.00 | 1.14 | 1.14 | 90 | 998.7 |
| 20260904194707 | 13 | 266 | 17.7 | 35.4 | 0.00 | 1.14 | 1.14 | 91 | 998.7 |
| 20260904194207 | 13 | 276 | 25.7 | 35.4 | 0.00 | 1.14 | 1.14 | 91 | 998.7 |
| 20260904193708 | 13 | 271 | 25.7 | 33.8 | 0.00 | 1.14 | 1.14 | 91 | 998.5 |
| 20260904193206 | 14 | 274 | 19.3 | 29.0 | 0.00 | 1.14 | 1.14 | 91 | 998.2 |
| 20260904191709 | 14 | 263 | 17.7 | 29.0 | 0.00 | 1.14 | 1.14 | 92 | 998.2 |
| 20260904184707 | 14 | 245 | 22.5 | 38.6 | 0.00 | 1.14 | 1.14 | 91 | 997.6 |
| 20260904183206 | 13 | 285 | 16.1 | 25.7 | 0.00 | 1.14 | 1.14 | 91 | 997.5 |
| 20260904182706 | 13 | 234 | 6.4 | 22.5 | 0.00 | 1.14 | 1.14 | 91 | 997.4 |
| 20260904182208 | 13 | 252 | 4.8 | 20.9 | 0.00 | 1.14 | 1.14 | 91 | 997.4 |
| 20260904181206 | 13 | 252 | 4.8 | 11.3 | 0.05 | 1.14 | 1.14 | 91 | 997.4 |
| 20260904180708 | 13 | 256 | 4.8 | 9.7 | 0.13 | 1.14 | 1.14 | 91 | 997.4 |
| 20260904175706 | 13 | 248 | 6.4 | 11.3 | 0.23 | 1.14 | 1.14 | 91 | 997.4 |
| 20260904175206 | 13 | 241 | 1.6 | 9.7 | 0.25 | 1.14 | 1.14 | 90 | 997.3 |
| 20260904173207 | 13 | 227 | 4.8 | 11.3 | 0.38 | 1.14 | 1.14 | 90 | 997.4 |
| 20260904172707 | 13 | 219 | 6.4 | 9.7 | 0.38 | 1.14 | 1.14 | 90 | 997.4 |
| 20260904171706 | 14 | 228 | 4.8 | 11.3 | 0.36 | 1.12 | 1.12 | 89 | 997.5 |
| 20260904170207 | 15 | 254 | 11.3 | 14.5 | 0.18 | 0.94 | 0.94 | 89 | 997.4 |
| 20260904165707 | 15 | 222 | 6.4 | 12.9 | 0.15 | 0.91 | 0.91 | 89 | 997.3 |
| 20260904164707 | 15 | 262 | 11.3 | 16.1 | 0.10 | 0.86 | 0.86 | 89 | 997.3 |
| 20260904164206 | 15 | 225 | 9.7 | 12.9 | 0.05 | 0.81 | 0.81 | 89 | 997.3 |
| 20260904161208 | 15 | 225 | 9.7 | 16.1 | 0.03 | 0.76 | 0.76 | 90 | 997.2 |
| 20260904155206 | 16 | 249 | 11.3 | 16.1 | 0.03 | 0.76 | 0.76 | 91 | 997.5 |
| 20260904154206 | 16 | 209 | 6.4 | 9.7 | 0.03 | 0.76 | 0.76 | 91 | 997.6 |
| 20260904153706 | 16 | 224 | 8.0 | 12.9 | 0.03 | 0.76 | 0.76 | 91 | 997.5 |
| 20260904152206 | 16 | 299 | 6.4 | 11.3 | 0.00 | 0.74 | 0.74 | 91 | 997.5 |
| 20260904151707 | 16 | 227 | 6.4 | 9.7 | 0.00 | 0.74 | 0.74 | 92 | 997.5 |